Location: Del Amo
(33.8464°N, 118.2104°W)
Time: 03:26:40
(UTC+00:00)

S-56A Canister/Altair - Pass Details

Date: 14 September 2024
Orbit: 636 x 2487 km, 38.9° (Epoch: 05 October)

Event Time Altitude Azimuth Distance (km) Brightness Sun altitude
Rises 02:19:27 0° 243° (WSW) 3,119 11.7 -4.6°
Reaches altitude 10° 02:21:32 10° 242° (WSW) 2,317 11.0 -5.0°
Maximum altitude 02:26:53 82° 156° (SSE) 979 8.0 -6.1°
Drops below altitude 10° 02:34:50 10° 70° (ENE) 3,371 10.3 -7.8°
Enters shadow 02:37:07 - 69° (ENE) 4,190 10.8 -8.2°
Sets 02:38:26 0° 69° (ENE) 4,656 - -8.5°
